EHI
5 5 5 5 4 2 1 1 1 3 5 6 6 6 6 6 5 4 2 0 0 1 3 2 1 0 0 0 0 0 0 0 0 0 0 0 0 0 0 0 0 0 0
4 4 3 3 2 1 1 1 1 2 4 6 6 4 4 5 5 4 2 1 1 2 2 2 1 0 0 0 0 0 0 0 0 0 0 0 0 0 0 0 0 0 0
5 3 2 1 1 0 1 1 0 1 4 5 4 3 3 4 4 3 2 1 2 2 1 1 0 0 0 0 0 0 0 0 0 0 0 0 0 0 0 0 0 0 0
4 4 3 2 2 1 0 0 0 1 3 4 3 3 2 2 2 2 1 1 1 1 0 0 0 0 0 0 0 0 0 0 0 0 0 0 0 0 0 0 0 0 0
3 4 4 4 3 2 1 1 1 1 2 3 2 2 1 1 1 1 0 0 0 0 0 0 0 0 0 0 0 0 0 0 0 0 0 0 0 0 0 0 0 0 0
4 5 6 6 5 3 3 3 2 2 3 3 2 1 1 1 2 1 0 0 0 0 0 0 0 0 0 0 0 0 0 0 0 0 0 0 0 0 0 0 0 0 0
4 5 8 9 7 5 5 5 3 3 4 3 1 1 1 2 3 2 1 0 0 0 0 0 0 0 0 0 0 0 1 1 0 0 0 0 0 0 0 0 0 0 0
3 4 8 10 10 7 6 5 4 4 5 4 2 0 1 2 2 1 1 1 0 0 0 0 0 0 0 0 0 1 1 1 0 0 0 0 0 0 0 0 0 0 0
1 1 5 9 10 8 6 6 6 6 6 5 4 2 1 1 1 1 0 0 0 0 0 0 0 0 0 0 0 1 1 1 0 0 0 0 0 0 0 0 0 0 0
0 0 2 5 7 7 6 7 8 8 8 7 5 3 2 2 2 2 1 0 0 1 2 2 1 1 1 1 0 1 2 1 0 0 0 0 0 0 0 0 0 0 0
1 0 1 2 5 7 7 7 7 8 9 8 5 4 4 4 3 3 2 1 1 1 2 3 3 2 2 1 1 2 2 1 1 0 0 0 0 0 0 0 0 0 0
1 1 1 2 5 8 9 8 7 7 9 8 7 6 6 6 5 3 3 2 2 1 2 3 3 3 1 0 1 2 2 2 1 0 0 0 0 0 0 0 0 0 0
1 2 3 4 6 9 9 9 8 9 10 10 9 9 8 7 6 3 2 2 2 2 1 1 2 2 1 0 0 1 1 1 1 0 0 0 0 0 0 0 0 0 0
0 2 4 5 6 8 9 9 9 9 10 10 9 9 9 7 5 3 1 1 1 1 1 1 1 1 0 0 0 0 0 0 0 0 0 0 0 0 0 0 0 0 0
0 1 3 5 6 8 9 9 9 8 7 7 6 6 6 6 4 3 2 1 0 0 1 0 0 0 0 0 0 0 0 0 0 0 0 0 0 0 0 0 0 0 0
0 0 2 4 6 6 8 9 8 6 5 4 4 4 4 4 3 3 2 1 0 0 0 0 0 0 0 0 0 0 0 0 0 0 0 0 0 0 0 0 0 0 0
0 0 1 3 4 5 6 8 7 6 5 4 3 3 3 3 3 2 1 0 0 0 0 0 0 0 0 0 0 0 0 0 0 0 0 0 0 0 0 0 0 0 0
0 0 1 3 3 3 4 6 6 5 4 3 2 2 2 2 2 1 0 0 0 0 0 0 0 0 0 0 0 0 0 0 0 0 0 0 0 0 0 0 0 0 0
0 1 2 3 3 3 3 3 4 3 1 1 1 1 1 1 1 0 0 0 0 0 0 0 0 0 0 0 0 0 0 0 0 0 0 0 0 0 0 0 0 0 0
1 2 3 3 2 2 1 1 1 1 0 0 0 0 0 0 0 0 0 0 0 0 0 0 0 0 0 0 0 0 0 0 0 0 0 0 0 0 0 0 0 0 0
3 3 2 1 1 1 0 0 0 0 0 0 0 0 0 0 0 0 0 0 0 0 0 0 0 0 0 0 0 0 0 0 0 0 0 0 0 0 0 0 0 0 0
2 2 1 0 0 0 0 0 0 0 0 0 0 0 0 0 0 0 0 0 0 0 0 0 0 0 0 0 0 0 0 0 0 0 0 0 0 0 0 0 0 0 0
1 1 0 0 0 0 0 0 0 0 0 0 0 0 0 0 0 0 0 0 0 0 0 0 0 0 0 0 0 0 0 0 0 0 0 0 0 0 0 0 0 0 0
0 0 0 0 0 0 0 0 0 0 0 0 0 0 0 0 0 0 0 0 0 0 0 0 0 0 0 0 0 0 0 0 0 0 0 0 0 0 0 0 0 0 0
0 0 0 0 0 0 0 0 0 0 0 0 0 0 0 0 0 0 0 0 0 0 0 0 0 0 0 0 0 0 0 0 0 0 0 0 0 0 0 0 0 0 0
0 0 0 0 0 0 0 0 0 0 0 0 0 0 0 0 0 0 0 0 0 0 0 0 0 0 0 0 0 0 0 0 0 0 0 0 0 0 0 0 0 0 0
Wind_Speed
4 4 4 4 3 2 3 3 2 2 2 2 2 1 1 1 1 1 2 2 2 3 2 1 2 2 2 1 2 2 2 1 1 1 1 1 1 2 1 1 1 2 2
5 4 4 3 3 3 2 3 3 2 2 2 1 1 1 1 2 1 1 1 1 2 2 2 2 2 2 1 1 1 1 1 1 1 1 0 1 1 1 1 1 2 1
6 5 4 4 3 2 2 2 3 3 2 2 1 1 2 1 1 1 1 1 1 1 1 1 2 1 2 1 1 1 1 0 1 1 1 1 0 1 1 0 1 1 1
6 6 4 4 3 2 2 1 2 3 2 3 3 2 1 1 1 1 1 1 1 1 1 1 1 1 1 1 1 1 0 1 1 1 1 0 1 1 0 1 0 1 1
5 6 5 4 3 3 2 1 2 2 2 2 3 2 1 1 1 2 2 1 1 1 1 1 1 1 1 2 1 1 1 1 0 1 1 1 1 1 1 0 1 1 0
5 5 5 4 3 3 2 1 2 2 2 2 2 2 2 2 2 2 2 1 1 1 1 1 1 1 1 1 1 1 1 1 0 1 0 0 0 1 0 1 0 0 1
5 5 5 5 4 4 3 2 2 2 2 1 1 2 2 3 3 2 2 2 1 1 1 1 1 1 1 1 1 1 1 1 1 1 1 0 1 0 0 1 0 0 1
5 5 5 5 4 4 4 3 2 2 1 1 1 1 2 2 2 1 1 2 2 2 2 2 2 1 1 1 1 1 1 1 1 1 1 0 1 0 0 1 1 0 1
5 4 5 5 4 4 4 3 3 2 1 0 0 1 1 1 1 1 1 1 1 1 1 1 1 1 1 1 1 0 0 0 1 1 1 1 1 1 0 1 2 2 1
5 4 3 4 4 3 3 3 3 2 2 1 1 1 1 1 1 1 0 0 0 0 1 1 1 2 1 1 1 1 1 1 1 1 2 1 1 1 0 1 1 2 2
4 4 4 3 3 3 3 2 2 2 1 1 1 1 1 1 1 1 0 0 0 0 0 1 1 1 1 1 1 1 2 2 1 1 1 1 1 1 1 1 1 1 2
4 4 4 3 3 3 3 2 2 1 1 1 1 1 1 1 0 1 1 0 1 0 0 0 0 0 0 0 1 2 1 2 1 1 1 1 0 1 0 1 1 1 1
4 4 3 3 3 3 2 2 2 1 1 1 1 1 1 1 1 1 1 0 0 0 0 1 0 0 0 0 1 1 1 1 1 1 1 1 1 1 1 1 1 1 1
3 4 3 3 3 3 2 2 2 1 1 1 1 1 1 1 1 1 1 1 1 1 0 0 0 0 0 1 1 1 1 1 1 1 2 1 2 2 1 1 1 1 1
3 3 2 2 2 2 2 2 1 1 1 1 0 0 1 1 1 1 1 0 1 1 1 1 0 1 0 1 1 1 2 1 1 2 2 1 1 1 1 1 1 1 1
2 2 2 2 2 1 1 2 1 1 1 1 1 1 1 1 1 1 1 1 0 1 0 1 1 1 1 3 3 2 2 1 1 1 1 1 2 1 2 2 2 2 2
3 2 2 2 2 1 1 1 1 2 1 1 1 1 1 1 0 1 1 1 0 0 0 0 1 1 1 3 3 3 2 1 1 1 1 1 1 1 2 3 3 3 4
2 2 2 2 2 2 1 1 1 2 1 1 1 1 1 1 1 1 1 1 1 0 0 1 1 2 2 3 3 3 2 2 2 1 1 1 1 1 1 1 1 3 3
2 2 2 1 1 1 1 1 1 1 1 1 1 1 1 1 1 1 1 1 1 1 1 1 1 1 1 2 2 3 1 2 2 1 1 1 1 1 2 0 1 2 3
3 2 2 2 2 2 2 2 1 1 1 1 1 1 1 1 1 1 0 0 0 0 0 1 1 1 1 1 1 1 1 1 2 1 1 1 1 1 1 1 2 3 3
2 2 1 1 1 1 2 2 2 2 2 2 1 1 0 1 1 1 1 0 0 0 0 0 1 1 1 0 1 1 0 1 2 2 2 1 1 1 2 1 2 4 3
2 1 1 1 1 1 1 2 2 2 2 2 2 1 0 1 0 1 1 1 1 1 1 0 0 0 0 0 1 2 2 1 1 2 1 1 1 2 2 2 3 4 3
1 1 0 1 1 1 1 1 1 1 2 1 1 1 1 1 0 0 1 1 1 1 1 1 1 1 0 1 1 2 3 3 2 1 3 3 3 3 3 3 4 3 2
1 1 0 1 0 0 1 1 1 1 1 1 1 1 1 1 1 1 0 0 1 1 1 1 1 1 1 0 0 1 1 2 2 2 3 4 4 3 3 3 2 2 2
1 1 1 1 0 1 1 1 1 1 2 1 1 1 1 1 1 1 1 1 1 2 1 1 1 1 1 1 0 0 0 0 1 1 1 1 1 1 1 1 1 1 1
1 1 1 1 2 2 2 1 1 1 1 2 2 1 1 0 1 1 1 2 1 1 2 2 2 1 2 1 1 1 1 2 2 1 1 1 2 2 2 1 1 1 1
Wind_Direction
141 126 122 124 122 117 105 102 113 98 92 93 102 99 84 91 85 64 53 31 22 50 84 78 73 79 82 69 65 71 54 34 46 58 43 24 81 101 95 67 67 77 83
142 136 131 134 143 140 128 134 114 110 98 80 95 120 116 114 106 86 64 56 42 40 62 85 85 87 88 74 61 78 61 358 28 92 86 25 5 356 115 112 98 86 76
149 151 149 151 145 129 117 110 121 118 122 124 91 72 73 77 90 101 91 49 71 67 62 94 101 110 113 124 133 95 93 1 330 20 91 111 201 318 348 128 113 109 78
154 154 151 151 152 140 127 141 134 126 125 123 116 121 122 132 140 135 140 137 101 97 80 104 125 140 128 127 162 135 126 126 310 332 7 37 127 134 301 325 58 119 106
163 152 150 155 160 144 140 156 118 109 116 131 134 153 138 135 124 126 143 150 132 135 132 149 151 162 158 157 161 134 121 125 192 301 332 341 334 257 140 219 302 340 80
155 148 146 155 156 138 136 132 127 119 123 121 139 155 148 146 144 157 160 156 140 154 160 171 166 177 164 159 164 143 135 152 237 282 277 141 349 296 105 154 198 321 298
149 149 153 154 149 148 149 154 147 139 124 139 153 149 164 165 165 175 174 159 170 186 197 171 166 169 169 167 155 137 149 219 232 242 256 262 254 251 146 127 174 339 297
150 158 161 154 155 152 150 156 154 150 140 151 173 160 142 146 138 169 178 176 186 193 199 187 174 161 152 162 144 167 208 215 235 263 263 253 275 269 179 138 129 95 338
154 162 159 149 150 153 157 162 159 154 145 170 179 158 133 121 148 176 171 148 181 181 185 196 167 160 147 148 117 129 227 230 233 243 252 237 250 260 218 144 138 138 163
149 154 147 149 153 151 156 156 163 171 167 170 177 166 155 156 166 148 127 144 212 151 209 218 183 184 191 181 167 172 185 210 240 224 232 238 231 229 184 206 182 145 157
146 155 146 145 148 145 145 145 157 163 175 191 185 182 185 182 157 122 179 202 213 208 242 232 199 207 202 201 185 197 192 210 238 242 223 241 235 192 197 196 171 167 138
139 145 141 142 143 148 155 159 167 188 198 195 179 178 167 142 142 159 163 189 214 197 217 111 95 171 75 271 241 237 219 209 221 232 237 251 198 146 182 178 194 207 185
117 113 123 138 145 152 160 172 174 180 195 187 159 144 168 192 219 216 171 193 246 211 163 100 128 126 79 318 276 246 243 232 233 235 231 227 179 193 197 171 196 221 206
107 103 109 122 125 135 139 157 172 165 159 153 159 161 181 201 248 254 218 213 226 210 141 135 141 140 104 16 1 334 285 255 236 244 241 206 193 195 182 178 197 203 188
97 99 106 113 112 120 132 135 130 123 126 119 125 153 173 185 276 283 278 254 247 234 182 149 81 52 62 4 33 353 326 310 268 235 221 204 132 108 163 170 189 201 198
80 73 78 95 118 119 117 125 138 130 111 94 70 67 63 70 335 314 318 334 281 257 236 185 151 72 26 26 39 25 318 302 304 281 236 212 181 192 187 191 184 181 199
74 66 65 61 51 87 112 118 125 114 118 109 78 64 58 67 348 323 337 324 289 236 221 49 92 104 56 42 31 0 329 305 294 295 304 294 273 200 205 224 219 218 232
69 66 64 58 39 28 34 117 90 95 97 86 74 66 68 65 26 21 18 350 13 56 107 112 93 112 79 52 30 354 314 314 308 315 316 299 300 324 7 264 236 234 233
63 58 64 56 33 38 39 65 121 117 99 81 65 61 64 63 66 68 38 345 12 11 5 45 76 97 82 53 25 5 311 304 301 309 331 320 279 346 23 345 272 272 270
55 54 56 41 38 41 45 45 52 83 83 77 67 71 79 99 125 151 166 279 173 238 338 40 38 97 108 90 68 36 329 310 306 301 295 318 340 13 12 247 250 261 268
48 30 31 39 37 32 36 35 31 29 38 43 45 64 107 164 167 160 178 193 153 107 42 59 357 34 74 148 185 183 232 288 310 312 308 309 310 302 311 303 254 259 274
45 31 40 41 35 38 47 24 27 25 27 38 32 9 340 283 188 155 205 200 178 184 202 195 308 312 129 139 247 228 240 290 270 282 295 295 304 294 290 282 284 291 301
48 28 122 110 45 20 30 36 37 44 30 15 345 330 339 327 355 205 214 208 205 195 205 209 223 259 235 195 252 242 247 270 265 275 300 304 301 294 272 270 280 281 269
15 5 322 179 189 5 12 56 67 50 5 324 307 297 333 343 334 322 270 217 240 230 221 222 233 242 253 230 205 230 251 274 287 300 304 303 295 289 281 281 275 262 253
22 13 349 311 8 41 33 52 55 11 340 326 324 323 331 310 305 324 294 253 229 210 222 240 220 212 229 246 55 114 254 274 300 320 305 302 305 303 293 293 282 268 288
35 19 358 2 14 28 21 27 40 9 334 325 327 320 316 311 309 319 335 334 287 267 247 232 231 239 216 225 238 266 301 306 304 304 259 269 270 265 271 277 285 284 276